This is the latest recevied weather packets stored in our database for station/object N4CRH-13. If no packets are shown the sender has not sent any weather packets the latest 10 day(s).
| Time | Temp. | Humidity | Pressure | Rain* | Wind** | Luminosity | Snow |
|---|---|---|---|---|---|---|---|
| 1777712712 | -1.11° C | 70% | 1300.1 hPa | 0 mm | - | 0 W/m² | - |
| 1777712409 | -1.11° C | 71% | 1300.1 hPa | 0 mm | - | 0 W/m² | - |
| 1777712105 | -0.56° C | 71% | 1300.3 hPa | 0 mm | - | 0 W/m² | - |
| 1777711802 | -0.56° C | 70% | 1300.1 hPa | 0 mm | - | 0 W/m² | - |
| 1777711499 | -0.56° C | 69% | 1299.8 hPa | 0 mm | - | 0 W/m² | - |
| 1777711194 | -0.56° C | 71% | 1300.1 hPa | 0 mm | - | 0 W/m² | - |
| 1777710891 | -1.11° C | 71% | 1300.2 hPa | 0 mm | - | 0 W/m² | - |
| 1777710588 | -1.11° C | 73% | 1299.9 hPa | 0 mm | - | 0 W/m² | - |
| 1777710284 | -1.11° C | 71% | 1299.9 hPa | 0 mm | - | 0 W/m² | - |
| 1777709982 | -0.56° C | 71% | 1300.2 hPa | 0 mm | - | 0 W/m² | - |
| 1777709680 | -0.56° C | 71% | 1300.2 hPa | 0 mm | - | 0 W/m² | - |
| 1777709376 | -0.56° C | 71% | 1300.3 hPa | 0 mm | - | 0 W/m² | - |
| 1777709073 | -0.56° C | 72% | 1300.3 hPa | 0 mm | - | 0 W/m² | - |
| 1777708771 | -0.56° C | 72% | 1300.4 hPa | 0 mm | - | 0 W/m² | - |
| 1777708468 | -0.56° C | 71% | 1300.5 hPa | 0 mm | - | 0 W/m² | - |
| 1777708167 | -1.11° C | 70% | 1300.2 hPa | 0 mm | - | 0 W/m² | - |
| 1777707864 | -1.11° C | 72% | 1300.3 hPa | 0 mm | - | 0 W/m² | - |
| 1777707560 | -0.56° C | 72% | 1300.3 hPa | 0 mm | - | 0 W/m² | - |
| 1777707256 | -0.56° C | 69% | 1300.3 hPa | 0 mm | - | 0 W/m² | - |
| 1777706954 | -1.11° C | 68% | 1300.5 hPa | 0 mm | - | 0 W/m² | - |
| 1777706651 | -0.56° C | 71% | 1300.4 hPa | 0 mm | - | 0 W/m² | - |
| 1777706349 | -0.56° C | 70% | 1300.4 hPa | 0 mm | - | 0 W/m² | - |
| 1777706046 | 0° C | 71% | 1300.7 hPa | 0 mm | - | 0 W/m² | - |
| 1777705744 | -0.56° C | 68% | 1300.5 hPa | 0 mm | - | 0 W/m² | - |
| 1777705442 | 0° C | 70% | 1300.5 hPa | 0 mm | - | 0 W/m² | - |
* Rain latest hour (hover to see other rain measurements)
** Current wind speed in m/s (hover to see current wind gust speed)